Location: Beaurevoir
(49.9971°N, 3.3085°E)
Time: 07:14:37
(UTC+00:00)

Cosmos 968 Rocket - Pass Details

Date: 23 May 2024
Orbit: 738 x 769 km, 74.0° (Epoch: 19 June)

Event Time Altitude Azimuth Distance (km) Brightness Sun altitude
Exits shadow 02:02:16 17° 192° (SSW) 1,826 4.9 -13.0°
Maximum altitude 02:06:14 72° 110° (ESE) 784 3.6 -12.6°
Drops below altitude 10° 02:11:21 10° 27° (NNE) 2,271 7.4 -12.2°
Sets 02:13:44 0° 26° (NNE) 3,204 8.6 -11.9°
